Yakima, WA

1:29 PM PDT on June 25, 2018 (GMT -0700)
Yakima Air Term-McAllister

Weather History for KYKM - November, 2017

Change the Weather History Date:

Sunday, November 5, 2017

  Actual Average Record
Temperature  
Mean Temperature 36 °F 41 °F  
Max Temperature 37 °F 54 °F 69 °F (1949)
Min Temperature 34 °F 29 °F 13 °F (2003)
Degree Days  
Heating Degree Days 29 24  
Month to date heating degree days 122 115  
Since 1 July heating degree days 683 819  
Cooling Degree Days 0 0  
Month to date cooling degree days 0 0  
Year to date cooling degree days 1054 472  
Moisture  
Dew Point 32 °F    
Average Humidity 91    
Maximum Humidity 100    
Minimum Humidity 82    
Precipitation  
Precipitation 0.16 in 0.03 in 0.58 in (2005)
Month to date precipitation 0.25 0.14  
Year to date precipitation 8.99 5.81  
Sea Level Pressure  
Sea Level Pressure 29.88 in    
Wind  
Wind Speed 5 mph (West)    
Max Wind Speed 10 mph    
Max Gust Speed 13 mph    
Visibility 6 miles    
Events Snow    
T = Trace of Precipitation, MM = Missing Value Source: NWS Daily Summary

Daily Weather History Graph

Daily Weather History Graph

Search for Another Location

Airport or City:

Astronomy

Nov. 05, 2017 Rise Set
Actual Time 6:50 AM PST 4:40 PM PST
Civil Twilight 6:18 AM PST 5:12 PM PST
Nautical Twilight 5:42 AM PST 5:48 PM PST
Astronomical Twilight 5:07 AM PST 6:23 PM PST
Moon 6:20 PM PST (11/5) 8:21 AM PST (11/5)
Length of Visible Light 10h 54m
Length of Day
9h 50m
Waning Gibbous, 96% of the Moon is Illuminated
Nov 5
Waning Gibbous
Nov 10
Last Quarter
Nov 18
New
Nov 26
First Quarter
Dec 3
Full

Hourly Weather History & Observations

Time (PST) Temp. Windchill Dew Point Humidity Pressure Visibility Wind Dir Wind Speed Gust Speed Precip Events Conditions
12:06 AM 35.1 °F 30.1 °F 32.0 °F 89% 29.82 in 2.0 mi West 5.8 mph - 0.00 in Snow Light Snow
12:12 AM 35.1 °F 28.6 °F 32.0 °F 89% 29.82 in 1.8 mi West 8.1 mph - 0.01 in Snow Light Snow
12:31 AM 34.0 °F 28.8 °F 32.0 °F 92% 29.82 in 1.0 mi West 5.8 mph - 0.02 in Snow Light Snow
12:37 AM 34.0 °F 29.8 °F 33.1 °F 96% 29.82 in 1.0 mi West 4.6 mph - 0.03 in Snow Light Snow
12:46 AM 34.0 °F 31.0 °F 33.1 °F 96% 29.82 in 1.0 mi West 3.5 mph - 0.04 in Snow Light Snow
12:53 AM 35.1 °F 32.2 °F 33.1 °F 92% 29.85 in 1.0 mi WSW 3.5 mph - 0.04 in Snow Light Snow
1:23 AM 34.0 °F 29.8 °F 32.0 °F 92% 29.80 in 1.5 mi NNW 4.6 mph - 0.02 in Snow Light Snow
1:43 AM 34.0 °F 29.8 °F 32.0 °F 92% 29.80 in 1.2 mi WSW 4.6 mph - 0.02 in Snow Light Snow
1:53 AM 34.0 °F 28.8 °F 32.0 °F 92% 29.83 in 1.5 mi West 5.8 mph - 0.03 in Snow Light Snow
1:25 AM 34.0 °F 31.0 °F 33.1 °F 96% 29.80 in 1.2 mi WNW 3.5 mph - 0.02 in Snow Light Snow
1:53 AM 34.0 °F - 32.0 °F 92% 29.82 in 1.2 mi Calm Calm - 0.03 in Snow Light Snow
2:53 AM 34.0 °F 31.0 °F 33.1 °F 96% 29.81 in 2.0 mi WSW 3.5 mph - 0.01 in   Overcast
3:11 AM 34.0 °F 29.8 °F 33.1 °F 96% 29.78 in 3.0 mi West 4.6 mph - 0.01 in   Overcast
3:53 AM 35.1 °F 32.2 °F 33.1 °F 92% 29.80 in 8.0 mi North 3.5 mph - 0.03 in   Overcast
4:11 AM 35.1 °F - 32.0 °F 89% 29.78 in 8.0 mi Calm Calm - 0.02 in   Overcast
4:53 AM 35.1 °F 30.1 °F 32.0 °F 89% 29.81 in 3.0 mi West 5.8 mph - 0.04 in Snow Light Snow
5:53 AM 35.1 °F 32.2 °F 32.0 °F 89% 29.82 in 10.0 mi WNW 3.5 mph - 0.01 in   Overcast
6:53 AM 34.0 °F 31.0 °F 32.0 °F 92% 29.83 in 6.0 mi West 3.5 mph - 0.00 in Snow Light Snow
7:53 AM 35.1 °F 30.1 °F 30.0 °F 82% 29.85 in 9.0 mi NW 5.8 mph - 0.00 in Snow Light Snow
8:53 AM 35.1 °F 32.2 °F 30.9 °F 85% 29.86 in 10.0 mi West 3.5 mph - 0.00 in   Overcast
9:53 AM 35.1 °F 28.6 °F 30.9 °F 85% 29.87 in 8.0 mi WSW 8.1 mph - 0.01 in Snow Light Snow
10:53 AM 35.1 °F 31.0 °F 30.9 °F 85% 29.88 in 6.0 mi WSW 4.6 mph - 0.00 in Snow Light Snow
11:53 AM 36.0 °F 31.1 °F 32.0 °F 86% 29.88 in 10.0 mi WSW 5.8 mph - 0.00 in   Overcast
12:53 PM 36.0 °F 32.1 °F 32.0 °F 86% 29.88 in 10.0 mi WSW 4.6 mph - 0.00 in   Overcast
1:03 PM 36.0 °F 32.1 °F 32.0 °F 86% 29.85 in 10.0 mi WSW 4.6 mph - N/A   Overcast
1:53 PM 37.0 °F 32.4 °F 32.0 °F 82% 29.89 in 8.0 mi WSW 5.8 mph - 0.00 in Snow Light Snow
2:14 PM 37.0 °F 33.3 °F 33.1 °F 86% 29.86 in 6.0 mi WSW 4.6 mph - 0.00 in Snow Light Snow
2:53 PM 37.0 °F - 32.0 °F 82% 29.90 in 10.0 mi Calm Calm - 0.00 in   Overcast
3:53 PM 37.0 °F 32.4 °F 32.0 °F 82% 29.93 in 6.0 mi NW 5.8 mph - 0.00 in Snow Light Snow
4:39 PM 36.0 °F 30.3 °F 32.0 °F 86% 29.91 in 1.8 mi West 6.9 mph - 0.00 in Snow Light Snow
4:53 PM 36.0 °F 33.3 °F 32.0 °F 86% 29.94 in 3.0 mi NW 3.5 mph - 0.00 in Snow Light Snow
5:49 PM 35.6 °F 32.8 °F 32.0 °F 87% 29.94 in 7.0 mi Variable 3.5 mph - 0.01 in Snow Light Snow
5:53 PM 36.0 °F 32.1 °F 30.9 °F 82% 29.97 in 4.0 mi North 4.6 mph - 0.01 in Snow Light Snow
6:16 PM 37.0 °F 33.3 °F 30.0 °F 76% 29.96 in 10.0 mi North 4.6 mph - 0.00 in   Overcast
6:53 PM 36.0 °F 29.0 °F 28.9 °F 76% 30.00 in 10.0 mi North 9.2 mph - 0.00 in   Overcast
7:02 PM 36.0 °F 31.1 °F 28.9 °F 76% 29.97 in 10.0 mi NNW 5.8 mph - N/A   Overcast
7:53 PM 36.0 °F 33.3 °F 30.0 °F 79% 30.02 in 10.0 mi NW 3.5 mph - N/A   Overcast
8:53 PM 35.1 °F 31.0 °F 30.9 °F 85% 30.05 in 10.0 mi West 4.6 mph - N/A   Overcast
9:53 PM 35.1 °F 30.1 °F 30.9 °F 85% 30.07 in 10.0 mi WNW 5.8 mph - N/A   Overcast
10:53 PM 35.1 °F 31.0 °F 30.9 °F 85% 30.09 in 10.0 mi West 4.6 mph - N/A   Overcast